THORAD AGENA D DEB, 4857

Orbit data source: Space-Track

THORAD AGENA D DEB, 4857 is space debris in SSO originally from a launch on Wed, 08 Apr 1970 UTC launched from the Air Force Western Test Range (AFWTR). Debris objects in space refer to the collection of defunct objects orbiting the Earth. Examples of debris include non-operational satellites, rocket bodies, and fragments generated from explosions, collisions, or faulty payload assembly.

Loading next visibility...
Identifier
4857, 1970-025EM
Orbit
SSO
Country
Flag of USUS
Related business
Manufacturer
Unknown
Mission
Spacecraft
Bus & Motor
Unknown
Mass
Unknown
Launch date (UTC)
1970-04-08 (56 years ago)
Launch vehicle
Unknown
Launch site
Air Force Western Test Range (AFWTR)
Object type
Payload
Rocket body
Debris
Shape & HBR
Unknown shape, 0.1 m
Radar Cross Section
Small (<0.1 m²)

Expand to show TLE details & history
Last TLE update: 14 hours ago

TLE from 14 hours ago
0 THORAD AGENA D DEB
1 04857U 70025EM  25299.61046975  .00003896  00000-0  15639-2 0  9995
2 04857  99.7516 173.0018 0046893  44.1729 316.3178 14.28283219789597
Epoch: 2025-10-26T14:39Z
TLE epoch observation values (Epoch: 2025-10-26T14:39:04.586Z)
Latitude
-0.00002°
Longitude
-81.9915°
Altitude
776.102 km
Speed
7.479 km/s
True Right ascension
11h 32m 00s
True Declination
0° 00' 00"
Sunlit
Object was in daylight at epoch
Visualization orbit readout
Latitude
Unknown
Longitude
Unknown
Altitude
Unknown
Speed
Unknown
Apparent Right ascension
Unknown
Apparent Declination
Unknown
Sunlit
N/A
Visualization observer readout
Local Sidereal Time
23:35:46
Azimuth
Unknown
Elevation
Unknown
Doppler factor
Unknown
Orbital elements
Apogee altitude
828.311 km
Perigee altitude
761.04 km
Semi-major axis
7,172.812 km
Eccentricity
0.00469
Inclination
99.7516°
RAAN
173.0018°
Arg. of periapsis
44.1729°
True anomaly
315.9451°
Mean anomaly
316.3178°
Eccentric anomaly
316.13161°
Mean motion
3.5728 °/min
Orbital period
100.76 mins
BSTAR
0.0015639

Documentation

Showing up to 5 results
|